CW6144 Weather Reports


Display with metric or nautical units.
time (UTC)temp
F
wind
direction
speed
MPH
gust
MPH
rain 1hr
in
rain 24hr
in
rain mn
in
humidity
%
barometer
mb
20260505014008 65 197 7.0 14.0 0.00 0.00 0.00 66 1008.1
20260505013512 65 201 7.0 14.0 0.00 0.00 0.00 66 1008.1
20260505013027 65 188 6.0 15.0 0.00 0.00 0.00 66 1008.1
20260505012510 65 175 4.0 15.0 0.00 0.00 0.00 66 1008.1
20260505012010 65 182 6.0 15.0 0.00 0.00 0.00 65 1008.1
20260505011511 65 200 7.0 14.0 0.00 0.00 0.00 65 1008.1
20260505011005 65 174 4.0 12.0 0.00 0.00 0.00 64 1007.9
20260505010506 66 137 3.0 12.0 0.00 0.00 0.00 64 1008.0
20260505010016 66 220 7.0 12.0 0.00 0.00 0.00 63 1008.0
20260505005507 66 96 5.0 11.0 0.00 0.00 0.00 63 1008.0
20260505005008 66 203 3.0 11.0 0.00 0.00 0.00 62 1008.0
20260505004522 67 171 6.0 16.0 0.00 0.00 0.00 61 1007.9
20260505004009 67 155 7.0 16.0 0.00 0.00 0.00 61 1007.9
20260505003513 67 184 5.0 13.0 0.00 0.00 0.00 61 1008.0
20260505003023 67 159 7.0 18.0 0.00 0.00 0.00 60 1007.9
20260505002515 68 202 6.0 18.0 0.00 0.00 0.00 59 1007.8
20260505002010 68 197 6.0 16.0 0.00 0.00 0.00 60 1007.9
20260505001534 68 201 8.0 16.0 0.00 0.00 0.00 59 1007.8
20260505001005 69 197 8.0 16.0 0.00 0.00 0.00 59 1007.9
20260505000504 69 205 8.0 17.0 0.00 0.00 0.00 58 1007.8
20260505000027 69 160 8.0 17.0 0.00 0.00 0.00 58 1007.8
20260504235509 70 209 3.0 14.0 0.00 0.00 0.00 59 1007.7
20260504235004 70 200 4.0 14.0 0.00 0.00 0.00 57 1007.6
20260504234520 70 158 6.0 13.0 0.00 0.00 0.00 57 1007.6
20260504234007 70 123 6.0 12.0 0.00 0.00 0.00 56 1007.7
20260504233510 70 211 4.0 16.0 0.00 0.00 0.00 56 1007.8
20260504233024 70 184 6.0 16.0 0.00 0.00 0.00 55 1007.9
20260504232508 70 177 6.0 15.0 0.00 0.00 0.00 55 1007.9
20260504232012 70 220 6.0 24.0 0.00 0.00 0.00 54 1007.9
20260504231530 71 132 9.0 24.0 0.00 0.00 0.00 54 1008.1
20260504231014 71 155 9.0 17.0 0.00 0.00 0.00 54 1008.1
20260504230510 72 178 6.0 14.0 0.00 0.00 0.00 54 1008.1
20260504230027 72 204 7.0 17.0 0.00 0.00 0.00 53 1008.1
20260504225503 72 202 8.0 15.0 0.00 0.00 0.00 54 1008.2
20260504225005 73 190 4.0 14.0 0.00 0.00 0.00 53 1008.2
20260504224517 73 173 4.0 11.0 0.00 0.00 0.00 54 1008.2
20260504224009 73 179 6.0 13.0 0.00 0.00 0.00 53 1008.3
20260504223507 73 207 7.0 13.0 0.00 0.00 0.00 52 1008.3
20260504223020 73 189 3.0 14.0 0.00 0.00 0.00 53 1008.3
20260504222508 72 202 6.0 15.0 0.00 0.00 0.00 53 1008.5
20260504222008 73 184 7.0 15.0 0.00 0.00 0.00 52 1008.5
20260504221526 73 229 8.0 15.0 0.00 0.00 0.00 51 1008.5
20260504221009 73 144 7.0 16.0 0.00 0.00 0.00 51 1008.7
20260504220511 73 159 7.0 16.0 0.00 0.00 0.00 52 1008.7
20260504220016 73 192 8.0 18.0 0.00 0.00 0.00 51 1008.7
20260504215503 73 240 9.0 18.0 0.00 0.00 0.00 50 1008.7
20260504215004 73 207 9.0 15.0 0.00 0.00 0.00 50 1008.7
20260504214510 73 230 7.0 16.0 0.00 0.00 0.00 52 1008.8
20260504214004 73 186 7.0 19.0 0.00 0.00 0.00 50 1008.9
20260504213505 73 223 7.0 19.0 0.00 0.00 0.00 51 1008.9
20260504213012 73 191 9.0 20.0 0.00 0.00 0.00 48 1008.9
20260504212502 74 185 8.0 20.0 0.00 0.00 0.00 50 1009.0
20260504212001 74 211 7.0 16.0 0.00 0.00 0.00 51 1009.0
20260504211502 74 160 6.0 20.0 0.00 0.00 0.00 50 1009.0
20260504211002 74 225 8.0 19.0 0.00 0.00 0.00 49 1009.1
20260504210502 73 216 8.0 19.0 0.00 0.00 0.00 49 1009.1
20260504210008 73 227 11.0 19.0 0.00 0.00 0.00 50 1009.2
20260504205503 74 176 9.0 21.0 0.00 0.00 0.00 49 1009.1
20260504205007 74 150 9.0 21.0 0.00 0.00 0.00 47 1009.1
20260504204510 74 188 10.0 16.0 0.00 0.00 0.00 50 1009.3
20260504204003 74 217 9.0 17.0 0.00 0.00 0.00 49 1009.4
20260504203503 74 209 6.0 20.0 0.00 0.00 0.00 51 1009.5
20260504203020 74 222 9.0 20.0 0.00 0.00 0.00 51 1009.5
20260504202504 75 198 7.0 22.0 0.00 0.00 0.00 50 1009.5
20260504202006 75 228 10.0 22.0 0.00 0.00 0.00 51 1009.6
20260504201512 75 172 6.0 16.0 0.00 0.00 0.00 51 1009.6
20260504201005 74 171 8.0 21.0 0.00 0.00 0.00 51 1009.8
20260504200503 74 207 9.0 21.0 0.00 0.00 0.00 49 1009.9
20260504200015 75 203 5.0 21.0 0.00 0.00 0.00 48 1009.9
20260504195502 75 211 11.0 21.0 0.00 0.00 0.00 48 1009.8
20260504195002 74 192 7.0 18.0 0.00 0.00 0.00 50 1009.9
20260504194525 74 257 7.0 18.0 0.00 0.00 0.00 49 1009.9
20260504194003 74 232 10.0 20.0 0.00 0.00 0.00 50 1009.9
20260504193507 74 126 11.0 20.0 0.00 0.00 0.00 50 1009.9
20260504193018 74 187 7.0 17.0 0.00 0.00 0.00 51 1009.9
20260504192506 74 169 9.0 20.0 0.00 0.00 0.00 49 1009.9
20260504192008 74 167 12.0 22.0 0.00 0.00 0.00 49 1010.0
20260504191515 74 233 11.0 22.0 0.00 0.00 0.00 49 1010.0
20260504191004 74 193 8.0 22.0 0.00 0.00 0.00 51 1010.0
20260504190508 74 234 9.0 22.0 0.00 0.00 0.00 51 1010.2
20260504190003 73 191 9.0 19.0 0.00 0.00 0.00 50 1010.4
20260504185503 73 206 11.0 21.0 0.00 0.00 0.00 50 1010.3
20260504185003 73 219 10.0 21.0 0.00 0.00 0.00 51 1010.4
20260504184511 73 196 9.0 21.0 0.00 0.00 0.00 49 1010.4
20260504184006 73 191 11.0 24.0 0.00 0.00 0.00 50 1010.6
20260504183503 73 221 10.0 24.0 0.00 0.00 0.00 51 1010.6
20260504183012 73 167 6.0 18.0 0.00 0.00 0.00 54 1010.5
20260504182503 73 222 11.0 19.0 0.00 0.00 0.00 51 1010.6
20260504182007 73 217 10.0 21.0 0.00 0.00 0.00 52 1010.7
20260504181522 73 182 9.0 21.0 0.00 0.00 0.00 52 1010.7
20260504181010 73 152 8.0 17.0 0.00 0.00 0.00 53 1010.7
20260504180508 73 193 9.0 18.0 0.00 0.00 0.00 51 1010.8
20260504180021 72 225 9.0 18.0 0.00 0.00 0.00 50 1010.8
20260504175507 72 273 7.0 22.0 0.00 0.00 0.00 54 1010.9
20260504175005 72 180 8.0 22.0 0.00 0.00 0.00 52 1010.9
20260504174506 72 226 10.0 23.0 0.00 0.00 0.00 50 1011.0
20260504174003 71 232 11.0 23.0 0.00 0.00 0.00 51 1011.0
20260504173503 72 242 9.0 21.0 0.00 0.00 0.00 51 1011.1
20260504173016 71 181 12.0 21.0 0.00 0.00 0.00 52 1011.1
20260504172502 71 219 7.0 22.0 0.00 0.00 0.00 52 1011.1
20260504172006 72 142 8.0 22.0 0.00 0.00 0.00 51 1011.2
20260504171518 72 196 9.0 19.0 0.00 0.00 0.00 50 1011.2
20260504171012 71 209 8.0 19.0 0.00 0.00 0.00 51 1011.4
20260504170508 71 231 10.0 20.0 0.00 0.00 0.00 51 1011.4
20260504151006 68 163 8.0 19.0 0.00 0.00 0.00 53 1011.9
20260504150507 68 120 6.0 10.0 0.00 0.00 0.00 54 1012.0
20260504141012 65 233 10.0 23.0 0.00 0.00 0.00 56 1012.4
20260504140506 65 196 8.0 24.0 0.00 0.00 0.00 56 1012.4
20260504130512 62 219 8.0 13.0 0.00 0.00 0.00 58 1012.5
20260504110504 60 223 7.0 14.0 0.00 0.00 0.00 58 1011.7
20260504100503 60 231 4.0 15.0 0.00 0.00 0.00 57 1012.2
20260504081518 61 172 6.0 18.0 0.00 0.00 0.00 57 1012.5
20260504081007 61 231 5.0 18.0 0.00 0.00 0.00 58 1012.6
20260504080509 61 204 5.0 14.0 0.00 0.00 0.00 58 1012.6
20260504050509 64 262 5.0 11.0 0.00 0.00 0.00 54 1014.2
20260504050020 65 247 2.0 15.0 0.00 0.00 0.00 55 1014.3
20260504045501 65 176 6.0 14.0 0.00 0.00 0.00 54 1014.3
20260504045003 64 259 6.0 14.0 0.00 0.00 0.00 55 1014.3
20260504044505 64 229 5.0 8.0 0.00 0.00 0.00 55 1014.4
20260504044003 65 236 3.0 11.0 0.00 0.00 0.00 55 1014.3
20260504043503 65 194 4.0 11.0 0.00 0.00 0.00 55 1014.4
20260504043006 65 238 5.0 10.0 0.00 0.00 0.00 55 1014.4
20260504042503 65 125 4.0 12.0 0.00 0.00 0.00 55 1014.4
20260504042004 65 171 3.0 12.0 0.00 0.00 0.00 55 1014.5
20260504041511 64 234 5.0 12.0 0.00 0.00 0.00 56 1014.6
20260504041004 64 234 5.0 12.0 0.00 0.00 0.00 56 1014.5
20260504040503 64 167 2.0 9.0 0.00 0.00 0.00 56 1014.6
20260504040019 64 202 4.0 9.0 0.00 0.00 0.00 56 1014.7
20260504035505 64 211 4.0 16.0 0.00 0.00 0.00 56 1014.7
20260504035007 64 228 4.0 16.0 0.00 0.00 0.00 57 1014.8
20260504034535 64 186 4.0 8.0 0.00 0.00 0.00 57 1014.8
20260504034003 63 187 4.0 8.0 0.00 0.00 0.00 57 1014.9
20260504033508 63 172 3.0 8.0 0.00 0.00 0.00 57 1014.9
20260504033006 63 163 3.0 8.0 0.00 0.00 0.00 57 1015.0
20260504032503 63 219 3.0 7.0 0.00 0.00 0.00 57 1015.0
20260504032003 63 215 3.0 7.0 0.00 0.00 0.00 57 1015.0
20260504031508 63 227 3.0 7.0 0.00 0.00 0.00 58 1015.1
20260504031004 63 238 2.0 5.0 0.00 0.00 0.00 58 1015.1
20260504030506 63 186 3.0 7.0 0.00 0.00 0.00 58 1015.2
20260504030015 63 190 1.0 7.0 0.00 0.00 0.00 58 1015.1
20260504025507 63 188 2.0 7.0 0.00 0.00 0.00 58 1015.2
20260504025007 63 222 1.0 5.0 0.00 0.00 0.00 58 1015.2
20260504024519 63 175 1.0 5.0 0.00 0.00 0.00 58 1015.2
20260504024008 63 184 3.0 5.0 0.00 0.00 0.00 57 1015.2
20260504023507 63 173 1.0 5.0 0.00 0.00 0.00 57 1015.1
20260504023024 63 190 1.0 5.0 0.00 0.00 0.00 57 1015.0
20260504022508 63 192 2.0 4.0 0.00 0.00 0.00 56 1015.0
20260504022003 63 180 0.0 5.0 0.00 0.00 0.00 56 1015.0
20260504021505 64 174 1.0 4.0 0.00 0.00 0.00 56 1015.0
20260504021003 64 181 2.0 4.0 0.00 0.00 0.00 56 1015.0
20260504020505 64 161 2.0 4.0 0.00 0.00 0.00 56 1014.9
20260504020012 64 175 1.0 3.0 0.00 0.00 0.00 56 1014.9
20260504015504 64 173 1.0 2.0 0.00 0.00 0.00 55 1014.9
20260504015004 64 180 1.0 6.0 0.00 0.00 0.00 55 1014.7
20260504014519 64 185 2.0 6.0 0.00 0.00 0.00 55 1014.7